FW8343 Weather Reports


time (UTC)temp
F
wind
direction
speed
knots
gust
knots
rain 1hr
in
rain 24hr
in
rain mn
in
humidity
%
barometer
mb
20260509045016 53 0 0.0 7.0 0.00 0.00 0.00 48 1001.6
20260509044530 53 0 0.0 7.8 0.00 0.00 0.00 47 1001.5
20260509044012 53 264 2.6 7.8 0.00 0.00 0.00 47 1001.6
20260509043514 52 279 1.7 6.1 0.00 0.00 0.00 48 1001.7
20260509043028 52 293 1.7 6.1 0.00 0.00 0.00 48 1001.6
20260509042514 52 323 1.7 6.1 0.00 0.00 0.00 48 1001.5
20260509042017 52 290 1.7 6.1 0.00 0.00 0.00 48 1001.4
20260509041531 51 332 0.9 6.1 0.00 0.00 0.00 50 1001.4
20260509041012 50 263 1.7 3.5 0.00 0.00 0.00 51 1001.3
20260509040510 49 286 1.7 3.5 0.00 0.00 0.00 54 1001.4
20260509040030 49 288 0.0 2.6 0.00 0.00 0.00 57 1001.2
20260509035514 49 288 0.0 0.9 0.00 0.00 0.00 61 1001.2
20260509035013 49 0 0.0 0.0 0.00 0.00 0.00 56 1001.1
20260509034530 49 0 0.0 0.0 0.00 0.00 0.00 53 1001.0
20260509034011 49 0 0.0 0.0 0.00 0.00 0.00 55 1001.0
20260509033516 49 0 0.0 2.6 0.00 0.00 0.00 58 1001.0
20260509033029 50 0 0.0 2.6 0.00 0.00 0.00 57 1001.1
20260509032512 50 0 0.9 2.6 0.00 0.00 0.00 61 1001.1
20260509032014 51 239 0.9 1.7 0.00 0.00 0.00 54 1001.0
20260509031535 51 239 0.0 1.7 0.00 0.00 0.00 53 1001.0
20260509031012 52 239 0.0 1.7 0.00 0.00 0.00 54 1001.0
20260509030519 52 0 0.0 0.0 0.00 0.00 0.00 50 1001.0
20260509030038 52 0 0.0 0.0 0.00 0.00 0.00 48 1000.9
20260509025511 52 0 0.0 0.0 0.00 0.00 0.00 50 1000.9
20260509025014 53 0 0.0 0.0 0.00 0.00 0.00 50 1000.9
20260509024530 53 0 0.0 0.0 0.00 0.00 0.00 48 1000.9
20260509024014 53 0 0.0 0.0 0.00 0.00 0.00 51 1001.0
20260509023511 53 0 0.0 0.0 0.00 0.00 0.00 46 1001.0
20260509023030 54 0 0.0 0.0 0.00 0.00 0.00 48 1001.0
20260509022512 54 0 0.0 0.0 0.00 0.00 0.00 47 1001.0
20260509022014 54 0 0.0 0.0 0.00 0.00 0.00 46 1001.0
20260509021532 54 0 0.0 0.0 0.00 0.00 0.00 45 1001.0
20260509021011 55 0 0.0 0.0 0.00 0.00 0.00 45 1001.0
20260509020511 55 0 0.0 0.0 0.00 0.00 0.00 46 1001.0
20260509020046 55 0 0.0 0.0 0.00 0.00 0.00 44 1001.0
20260509015510 56 0 0.0 0.0 0.00 0.00 0.00 47 1001.0
20260509015013 56 0 0.0 0.0 0.00 0.00 0.00 49 1001.0
20260509014543 56 0 0.0 0.0 0.00 0.00 0.00 50 1001.0
20260509014012 57 0 0.0 0.0 0.00 0.00 0.00 49 1001.0
20260509013513 57 0 0.0 0.0 0.00 0.00 0.00 39 1001.0
20260509013038 57 0 0.0 0.0 0.00 0.00 0.00 39 1001.0
20260509012509 58 0 0.0 0.0 0.00 0.00 0.00 39 1001.1
20260509012014 58 0 0.0 0.0 0.00 0.00 0.00 37 1001.1
20260509011531 58 0 0.0 0.0 0.00 0.00 0.00 37 1001.1
20260509011012 59 0 0.0 0.0 0.00 0.00 0.00 35 1001.2
20260509010516 59 0 0.0 0.0 0.00 0.00 0.00 34 1001.2
20260509010032 59 0 0.0 0.9 0.00 0.00 0.00 34 1001.2
20260509005511 59 0 0.0 0.9 0.00 0.00 0.00 34 1001.2
20260509005021 59 0 0.0 1.7 0.00 0.00 0.00 34 1001.3
20260509004531 59 0 0.0 3.5 0.00 0.00 0.00 34 1001.3
20260509004013 60 239 0.0 6.1 0.00 0.00 0.00 35 1001.3
20260509003515 60 258 0.9 6.1 0.00 0.00 0.00 33 1001.2
20260509003038 60 288 1.7 6.1 0.00 0.00 0.00 34 1001.2
20260509002513 60 288 1.7 3.5 0.00 0.00 0.00 34 1001.3
20260509002013 60 272 0.9 3.5 0.00 0.00 0.00 34 1001.3
20260509001531 60 267 1.7 3.5 0.00 0.00 0.00 34 1001.4
20260509001013 60 265 0.9 4.3 0.00 0.00 0.00 35 1001.4
20260509000510 60 0 0.9 6.1 0.00 0.00 0.00 34 1001.4
20260509000031 60 280 1.7 6.1 0.00 0.00 0.00 33 1001.4
20260508235517 60 270 0.9 9.6 0.00 0.00 0.00 34 1001.5
20260508235015 60 288 0.9 18.2 0.00 0.00 0.00 36 1001.6
20260508234532 60 266 5.2 18.2 0.00 0.00 0.00 32 1001.7
20260508234011 61 242 7.0 18.2 0.00 0.00 0.00 33 1001.8
20260508233511 61 240 2.6 8.7 0.00 0.00 0.00 33 1001.7
20260508233032 61 275 1.7 17.4 0.00 0.00 0.00 32 1001.8
20260508232513 60 284 2.6 17.4 0.00 0.00 0.00 32 1001.8
20260508232019 61 219 2.6 7.8 0.00 0.00 0.00 32 1002.0
20260508231532 60 234 2.6 7.8 0.00 0.00 0.00 36 1001.8
20260508231011 60 258 2.6 6.1 0.00 0.00 0.00 35 1001.9
20260508230511 60 218 1.7 7.0 0.00 0.00 0.00 39 1001.8
20260508230031 60 243 1.7 7.8 0.00 0.00 0.00 33 1001.9
20260508225512 60 223 1.7 7.8 0.00 0.00 0.00 32 1002.0
20260508225010 61 219 2.6 7.0 0.00 0.00 0.00 36 1002.0
20260508224533 61 232 1.7 7.0 0.00 0.00 0.00 33 1002.0
20260508224009 61 228 2.6 7.0 0.00 0.00 0.00 32 1002.1
20260508223513 61 277 2.6 7.8 0.00 0.00 0.00 32 1002.1
20260508223039 61 267 0.9 7.8 0.00 0.00 0.00 33 1002.1
20260508222511 61 254 2.6 7.8 0.00 0.00 0.00 32 1002.1
20260508222012 61 261 3.5 7.0 0.00 0.00 0.00 32 1002.2
20260508221532 61 265 2.6 9.6 0.00 0.00 0.00 32 1002.3
20260508221016 61 220 3.5 10.4 0.00 0.00 0.00 39 1002.3
20260508220513 61 273 3.5 10.4 0.00 0.00 0.00 31 1002.4
20260508220034 61 350 1.7 7.8 0.00 0.00 0.00 33 1002.5
20260508215511 61 254 1.7 7.8 0.00 0.00 0.00 35 1002.6
20260508215015 61 225 0.9 7.0 0.00 0.00 0.00 32 1002.7
20260508214534 61 265 3.5 7.8 0.00 0.00 0.00 32 1002.7
20260508214012 61 274 2.6 7.8 0.00 0.00 0.00 32 1002.8
20260508213513 61 294 1.7 6.1 0.00 0.00 0.00 34 1002.8
20260508213032 60 288 0.9 5.2 0.00 0.00 0.00 33 1002.7
20260508212510 60 228 1.7 6.1 0.00 0.00 0.00 36 1002.8
20260508212012 61 255 1.7 9.6 0.00 0.00 0.00 33 1002.8
20260508211529 60 232 2.6 9.6 0.00 0.00 0.00 37 1003.0
20260508211011 60 232 3.5 7.8 0.00 0.00 0.00 34 1003.0
20260508210511 60 218 3.5 7.8 0.00 0.00 0.00 33 1002.9
20260508210029 61 228 1.7 7.8 0.00 0.00 0.00 32 1003.0
20260508205512 61 271 3.5 7.8 0.00 0.00 0.00 32 1003.0
20260508205019 61 241 2.6 8.7 0.00 0.00 0.00 33 1003.0
20260508204532 60 259 3.5 8.7 0.00 0.00 0.00 33 1003.1
20260508204010 59 234 3.5 8.7 0.00 0.00 0.00 36 1003.1
20260508203514 59 240 2.6 8.7 0.00 0.00 0.00 39 1003.1
20260508203038 60 193 1.7 5.2 0.00 0.00 0.00 32 1003.2
20260508202512 60 234 0.9 7.8 0.00 0.00 0.00 32 1003.3
20260508202012 60 224 1.7 8.7 0.00 0.00 0.00 34 1003.4
20260508201533 59 267 4.3 8.7 0.00 0.00 0.00 34 1003.4
20260508201010 59 226 0.9 8.7 0.00 0.00 0.00 37 1003.4
20260508200514 59 190 1.7 8.7 0.00 0.00 0.00 37 1003.5
20260508200034 59 208 3.5 7.0 0.00 0.00 0.00 33 1003.5
20260508195513 59 111 1.7 7.0 0.00 0.00 0.00 33 1003.5
20260508195012 59 223 2.6 7.0 0.00 0.00 0.00 36 1003.6
20260508194531 59 220 2.6 10.4 0.00 0.00 0.00 33 1003.7
20260508194013 59 225 4.3 10.4 0.00 0.00 0.00 33 1003.7
20260508193511 60 219 4.3 7.8 0.00 0.00 0.00 34 1003.8
20260508193032 60 273 1.7 7.0 0.00 0.00 0.00 32 1003.9
20260508192511 60 251 0.9 7.8 0.00 0.00 0.00 33 1004.0
20260508192021 60 287 2.6 8.7 0.00 0.00 0.00 37 1004.2
20260508191537 59 207 1.7 8.7 0.00 0.00 0.00 33 1004.1
20260508191011 59 281 3.5 8.7 0.00 0.00 0.00 34 1004.2
20260508190514 59 207 0.9 5.2 0.00 0.00 0.00 34 1004.2
20260508190035 60 0 1.7 5.2 0.00 0.00 0.00 32 1004.3
20260508185513 60 244 0.9 6.1 0.00 0.00 0.00 34 1004.4
20260508185011 59 231 1.7 6.1 0.00 0.00 0.00 36 1004.6
20260508184530 59 242 0.9 5.2 0.00 0.00 0.00 37 1004.6
20260508184009 60 0 0.9 7.0 0.00 0.00 0.00 31 1004.7
20260508183512 60 254 2.6 7.0 0.00 0.00 0.00 34 1004.8
20260508183034 60 170 0.9 6.1 0.00 0.00 0.00 32 1004.8
20260508182510 59 289 0.9 3.5 0.00 0.00 0.00 35 1004.9
20260508182014 59 240 0.9 3.5 0.00 0.00 0.00 33 1005.1
20260508181536 59 270 0.0 7.0 0.00 0.00 0.00 32 1005.2
20260508181010 58 269 2.6 7.0 0.00 0.00 0.00 30 1005.3
20260508180513 58 250 1.7 5.2 0.00 0.00 0.00 32 1005.4
20260508180032 59 224 1.7 8.7 0.00 0.00 0.00 30 1005.4
20260508175512 60 222 2.6 8.7 0.00 0.00 0.00 31 1005.5
20260508175012 59 242 1.7 7.0 0.00 0.00 0.00 33 1005.4
20260508174533 60 201 1.7 9.6 0.00 0.00 0.00 34 1005.5
20260508174009 60 266 1.7 9.6 0.00 0.00 0.00 32 1005.5
20260508173513 61 213 0.9 7.0 0.00 0.00 0.00 31 1005.6
20260508173040 61 294 1.7 7.0 0.00 0.00 0.00 31 1005.6
20260508172512 61 292 1.7 7.0 0.00 0.00 0.00 32 1005.7
20260508172015 60 263 2.6 7.8 0.00 0.00 0.00 35 1005.8
20260508171532 60 271 1.7 8.7 0.00 0.00 0.00 36 1005.8
20260508171011 61 258 1.7 9.6 0.00 0.00 0.00 34 1006.0
20260508170511 60 0 1.7 9.6 0.00 0.00 0.00 35 1006.0
20260508170030 60 292 1.7 9.6 0.00 0.00 0.00 34 1006.0
20260508165512 60 22 0.9 5.2 0.00 0.00 0.00 32 1006.0
20260508165013 59 230 2.6 7.0 0.00 0.00 0.00 31 1006.2
20260508164530 59 269 1.7 8.7 0.00 0.00 0.00 32 1006.2
20260508164012 59 288 1.7 8.7 0.00 0.00 0.00 35 1006.3
20260508163513 59 19 1.7 8.7 0.00 0.00 0.00 33 1006.3
20260508163034 58 326 0.9 5.2 0.00 0.00 0.00 37 1006.4
20260508162512 57 267 0.9 5.2 0.00 0.00 0.00 37 1006.6
20260508162013 57 256 1.7 5.2 0.00 0.00 0.00 36 1006.5
20260508161530 57 219 0.9 8.7 0.00 0.00 0.00 37 1006.6
20260508161012 56 232 3.5 8.7 0.00 0.00 0.00 38 1006.6
20260508160515 57 223 2.6 7.8 0.00 0.00 0.00 36 1006.6
20260508160034 57 288 1.7 7.8 0.00 0.00 0.00 37 1006.7
20260508155514 57 247 2.6 7.8 0.00 0.00 0.00 35 1006.7
20260508155013 57 10 1.7 7.0 0.00 0.00 0.00 36 1006.7
20260508154529 56 284 1.7 7.0 0.00 0.00 0.00 37 1006.9
20260508154013 56 0 0.9 6.1 0.00 0.00 0.00 38 1007.0
20260508153514 55 310 1.7 6.1 0.00 0.00 0.00 39 1007.1
20260508153033 56 250 1.7 6.1 0.00 0.00 0.00 37 1007.3
20260508152514 56 241 1.7 6.1 0.00 0.00 0.00 40 1007.3
20260508152014 56 223 2.6 7.8 0.00 0.00 0.00 39 1007.3
20260508151536 56 310 2.6 8.7 0.00 0.00 0.00 38 1007.3
20260508151011 56 257 2.6 8.7 0.00 0.00 0.00 39 1007.3
20260508150516 56 285 1.7 7.0 0.00 0.00 0.00 39 1007.5
20260508150034 55 273 0.9 7.0 0.00 0.00 0.00 41 1007.5
20260508145510 54 254 1.7 7.0 0.00 0.00 0.00 44 1007.5
20260508145010 53 259 2.6 7.0 0.00 0.00 0.00 43 1007.5
20260508144530 52 294 2.6 7.0 0.00 0.00 0.00 43 1007.7
20260508144009 52 243 0.0 3.5 0.00 0.00 0.00 45 1007.7
20260508143514 52 243 0.0 4.3 0.00 0.00 0.00 47 1007.7
20260508143033 51 0 0.0 4.3 0.00 0.00 0.00 50 1007.7
20260508142510 50 216 0.9 4.3 0.00 0.00 0.00 49 1007.8
20260508142013 50 202 0.9 4.3 0.00 0.00 0.00 57 1007.8
20260508141554 49 0 0.9 4.3 0.00 0.00 0.00 55 1007.9
20260508141011 49 185 1.7 6.1 0.00 0.00 0.00 56 1007.9
20260508140516 48 185 2.6 7.0 0.00 0.00 0.00 56 1007.9
20260508140031 48 194 1.7 7.0 0.00 0.00 0.00 58 1008.0
20260508135517 47 223 0.9 6.1 0.00 0.00 0.00 57 1008.0
20260508135014 47 223 1.7 6.1 0.00 0.00 0.00 61 1008.1
20260508134548 46 193 0.9 7.0 0.00 0.00 0.00 64 1008.1
20260508134010 46 193 3.5 7.0 0.00 0.00 0.00 65 1008.0
20260508133517 46 199 2.6 7.0 0.00 0.00 0.00 67 1008.1
20260508133030 45 207 1.7 6.1 0.00 0.00 0.00 67 1008.1
20260508132513 45 217 2.6 6.1 0.00 0.00 0.00 67 1008.2
20260508132015 44 194 1.7 7.0 0.00 0.00 0.00 70 1008.1
20260508131535 44 196 2.6 7.0 0.00 0.00 0.00 71 1008.2
20260508131011 43 205 0.0 5.2 0.00 0.00 0.00 78 1008.2
20260508130513 42 202 0.0 3.5 0.00 0.00 0.00 82 1008.2
20260508130032 41 0 0.9 3.5 0.00 0.00 0.00 89 1008.2
20260508125510 39 0 0.9 3.5 0.00 0.00 0.00 96 1008.2
20260508125014 38 321 0.0 0.0 0.00 0.00 0.00 98 1008.3
20260508124532 37 0 0.0 0.0 0.00 0.00 0.00 98 1008.3
20260508124010 37 0 0.0 0.0 0.00 0.00 0.00 99 1008.3
20260508123517 36 0 0.0 0.0 0.00 0.00 0.00 99 1008.3
20260508123043 36 0 0.0 0.0 0.00 0.00 0.00 98 1008.2
20260508122509 35 0 0.0 0.0 0.00 0.00 0.00 98 1008.2
20260508122015 33 0 0.0 0.0 0.00 0.00 0.00 98 1008.2
20260508121533 33 0 0.0 0.0 0.00 0.00 0.00 97 1008.2
20260508121012 32 0 0.0 0.0 0.00 0.00 0.00 97 1008.2
20260508120511 32 0 0.0 0.0 0.00 0.00 0.00 97 1008.1
20260508120029 32 0 0.0 0.0 0.00 0.00 0.00 97 1008.1
20260508115510 31 0 0.0 0.0 0.00 0.00 0.00 97 1008.1
20260508115011 31 0 0.0 0.0 0.00 0.00 0.00 97 1008.1
20260508114536 31 0 0.0 0.0 0.00 0.00 0.00 97 1008.1
20260508114011 31 0 0.0 0.0 0.00 0.00 0.00 97 1008.1
20260508113511 31 0 0.0 0.0 0.00 0.00 0.00 97 1008.1
20260508113047 30 0 0.0 0.0 0.00 0.00 0.00 96 1008.1
20260508112513 30 0 0.0 0.0 0.00 0.00 0.00 96 1008.2
20260508112012 30 0 0.0 0.0 0.00 0.00 0.00 96 1008.2
20260508111532 30 0 0.0 0.0 0.00 0.00 0.00 97 1008.1
20260508111018 30 0 0.0 0.0 0.00 0.00 0.00 97 1008.2
20260508110514 30 0 0.0 0.0 0.00 0.00 0.00 96 1008.1
20260508110031 29 0 0.0 0.0 0.00 0.00 0.00 96 1008.1
20260508105512 30 0 0.0 0.0 0.00 0.00 0.00 96 1008.1
20260508105018 29 0 0.0 0.0 0.00 0.00 0.00 96 1008.1
20260508104532 29 0 0.0 0.0 0.00 0.00 0.00 96 1008.2
20260508104010 29 0 0.0 0.0 0.00 0.00 0.00 96 1008.1
20260508103513 29 0 0.0 0.0 0.00 0.00 0.00 95 1008.2
20260508103035 29 0 0.0 0.0 0.00 0.00 0.00 96 1008.2
20260508102511 29 0 0.0 0.0 0.00 0.00 0.00 96 1008.2
20260508102013 29 0 0.0 0.0 0.00 0.00 0.00 96 1008.3
20260508101534 29 0 0.0 0.0 0.00 0.00 0.00 96 1008.3
20260508101016 29 0 0.0 0.0 0.00 0.00 0.00 96 1008.3
20260508100516 28 0 0.0 0.0 0.00 0.00 0.00 95 1008.3
20260508100030 29 0 0.0 0.0 0.00 0.00 0.00 95 1008.3
20260508095512 30 0 0.0 0.0 0.00 0.00 0.00 95 1008.3
20260508095012 30 0 0.0 0.0 0.00 0.00 0.00 96 1008.3
20260508094530 30 0 0.0 0.0 0.00 0.00 0.00 96 1008.3
20260508094010 30 0 0.0 0.0 0.00 0.00 0.00 96 1008.4
20260508093512 30 0 0.0 0.0 0.00 0.00 0.00 96 1008.4
20260508093032 30 0 0.0 0.0 0.00 0.00 0.00 96 1008.4
20260508092512 30 0 0.0 0.0 0.00 0.00 0.00 95 1008.4
20260508092009 30 0 0.0 0.0 0.00 0.00 0.00 96 1008.4
20260508091537 30 0 0.0 0.0 0.00 0.00 0.00 95 1008.3
20260508091011 30 0 0.0 0.0 0.00 0.00 0.00 95 1008.4
20260508090511 30 0 0.0 0.0 0.00 0.00 0.00 95 1008.4
20260508090038 30 0 0.0 0.0 0.00 0.00 0.00 95 1008.5
20260508085510 30 0 0.0 0.0 0.00 0.00 0.00 95 1008.5
20260508085011 30 0 0.0 0.0 0.00 0.00 0.00 95 1008.5
20260508084530 30 0 0.0 0.0 0.00 0.00 0.00 95 1008.5
20260508084012 30 0 0.0 0.0 0.00 0.00 0.00 95 1008.5
20260508083512 31 0 0.0 0.0 0.00 0.00 0.00 95 1008.4
20260508083029 31 0 0.0 0.0 0.00 0.00 0.00 95 1008.4
20260508082511 31 0 0.0 0.0 0.00 0.00 0.00 95 1008.5
20260508082011 31 0 0.0 0.0 0.00 0.00 0.00 96 1008.5
20260508081531 30 0 0.0 0.0 0.00 0.00 0.00 95 1008.4
20260508081009 30 0 0.0 0.0 0.00 0.00 0.00 94 1008.4
20260508080510 30 0 0.0 0.0 0.00 0.00 0.00 93 1008.6
20260508080034 31 0 0.0 0.0 0.00 0.00 0.00 94 1008.6
20260508075512 31 0 0.0 0.0 0.00 0.00 0.00 94 1008.6
20260508075013 31 0 0.0 0.0 0.00 0.00 0.00 94 1008.6
20260508074536 31 0 0.0 0.0 0.00 0.00 0.00 94 1008.7
20260508074011 31 0 0.0 0.0 0.00 0.00 0.00 94 1008.7
20260508073513 32 0 0.0 0.0 0.00 0.00 0.00 94 1008.8
20260508073032 32 0 0.0 0.0 0.00 0.00 0.00 95 1008.8
20260508072510 32 0 0.0 0.0 0.00 0.00 0.00 95 1008.8
20260508072014 32 0 0.0 0.0 0.00 0.00 0.00 95 1008.9
20260508071532 31 0 0.0 0.0 0.00 0.00 0.00 94 1008.9
20260508071013 31 0 0.0 0.0 0.00 0.00 0.00 93 1009.0
20260508070517 32 0 0.0 0.0 0.00 0.00 0.00 93 1009.0
20260508070033 32 0 0.0 0.0 0.00 0.00 0.00 94 1009.1
20260508065510 31 0 0.0 0.0 0.00 0.00 0.00 93 1009.1
20260508065015 31 0 0.0 0.0 0.00 0.00 0.00 93 1009.0
20260508064530 31 0 0.0 0.0 0.00 0.00 0.00 92 1009.1
20260508064011 31 0 0.0 0.0 0.00 0.00 0.00 93 1009.2
20260508063514 31 0 0.0 0.0 0.00 0.00 0.00 92 1009.1
20260508063029 31 0 0.0 0.0 0.00 0.00 0.00 92 1009.2
20260508062513 31 0 0.0 0.0 0.00 0.00 0.00 91 1009.2
20260508062016 31 0 0.0 0.0 0.00 0.00 0.00 91 1009.2
20260508061532 31 0 0.0 0.0 0.00 0.00 0.00 91 1009.2
20260508061012 31 0 0.0 0.0 0.00 0.00 0.00 92 1009.2
20260508060515 31 0 0.0 0.0 0.00 0.00 0.00 90 1009.2
20260508060031 31 0 0.0 0.0 0.00 0.00 0.00 90 1009.2
20260508055508 31 0 0.0 0.0 0.00 0.00 0.00 89 1009.2
20260508055011 32 0 0.0 0.0 0.00 0.00 0.00 89 1009.3
20260508054531 32 0 0.0 0.0 0.00 0.00 0.00 88 1009.2
20260508054012 33 0 0.0 0.0 0.00 0.00 0.00 88 1009.4
20260508053514 33 0 0.0 0.0 0.00 0.00 0.00 89 1009.3
20260508053028 33 0 0.0 0.0 0.00 0.00 0.00 88 1009.4
20260508052511 33 0 0.0 0.0 0.00 0.00 0.00 88 1009.5
20260508052015 33 0 0.0 0.0 0.00 0.00 0.00 88 1009.5
20260508051528 33 0 0.0 0.0 0.00 0.00 0.00 87 1009.6
20260508051010 34 0 0.0 0.0 0.00 0.00 0.00 87 1009.5
20260508050511 34 0 0.0 0.0 0.00 0.00 0.00 88 1009.5
20260508050031 34 0 0.0 0.0 0.00 0.00 0.00 86 1009.5
20260508045512 34 0 0.0 0.0 0.00 0.00 0.00 85 1009.5